When you browse on this site, cookies collect data to enhance your experience and personalize the content and advertising you see.
Visit our Privacy Policy to learn more. By continuing to use the site, you agree to this use of cookies and data.
  • In Österreich
  • Länderverzeichnis
  • Für 7 Tage
  • Wassertemperatur
  • Wetterkarte
  • News
  • Widgets
  • user-avatar
    Anmelden

    Stündliche Wetter Lublin

    Heute, 3 April, Freitag

    Zeit Temperatur Niederschläge Wind Luftdruck Luftfeuchtigkeit
    00:00 +1°C° 0 mm 4 m/S 739 mmHg 65%
    01:00 +1°C° 0 mm 5 m/S 739 mmHg 64%
    02:00 +1°C° 0 mm 5 m/S 739 mmHg 62%
    03:00 +1°C° 0 mm 5 m/S 739 mmHg 61%
    04:00 0°C° 0 mm 5 m/S 738 mmHg 61%
    05:00 -1°C° 0 mm 6 m/S 738 mmHg 61%
    06:00 +1°C° 0 mm 6 m/S 738 mmHg 60%
    07:00 +2°C° 0 mm 6 m/S 738 mmHg 58%
    08:00 +2°C° 0 mm 7 m/S 739 mmHg 56%
    09:00 +4°C° 0 mm 7 m/S 739 mmHg 55%
    10:00 +6°C° 0 mm 7 m/S 739 mmHg 54%
    11:00 +7°C° 0 mm 8 m/S 740 mmHg 53%
    12:00 +7°C° 0.1 mm 8 m/S 740 mmHg 56%
    13:00 +7°C° 0.1 mm 8 m/S 741 mmHg 58%
    14:00 +7°C° 0 mm 8 m/S 741 mmHg 60%
    15:00 +8°C° 0.1 mm 7 m/S 741 mmHg 60%
    16:00 +6°C° 0.1 mm 7 m/S 741 mmHg 61%
    17:00 +7°C° 0.1 mm 6 m/S 742 mmHg 61%
    18:00 +6°C° 0 mm 5 m/S 742 mmHg 62%
    19:00 +5°C° 0 mm 5 m/S 743 mmHg 62%
    20:00 +4°C° 0 mm 4 m/S 744 mmHg 63%
    21:00 +3°C° 0 mm 4 m/S 744 mmHg 66%
    22:00 +3°C° 0 mm 3 m/S 745 mmHg 69%
    23:00 +2°C° 0 mm 3 m/S 746 mmHg 71%

    Morgen, 4 April, Samstag

    Zeit Temperatur Niederschläge Wind Luftdruck Luftfeuchtigkeit
    00:00 +2°C° 0 mm 3 m/S 746 mmHg 73%
    01:00 +1°C° 0 mm 3 m/S 747 mmHg 75%
    02:00 +1°C° 0 mm 3 m/S 747 mmHg 77%
    03:00 +1°C° 0 mm 2 m/S 748 mmHg 78%
    04:00 +1°C° 0 mm 2 m/S 748 mmHg 79%
    05:00 -1°C° 0 mm 2 m/S 748 mmHg 81%
    06:00 +2°C° 0 mm 2 m/S 749 mmHg 77%
    07:00 +3°C° 0 mm 2 m/S 749 mmHg 73%
    08:00 +4°C° 0 mm 2 m/S 750 mmHg 69%
    09:00 +5°C° 0 mm 2 m/S 750 mmHg 65%
    10:00 +6°C° 0 mm 2 m/S 751 mmHg 61%
    11:00 +7°C° 0 mm 2 m/S 751 mmHg 58%
    12:00 +8°C° 0.1 mm 3 m/S 751 mmHg 55%
    13:00 +8°C° 0.1 mm 3 m/S 752 mmHg 52%
    14:00 +9°C° 0.1 mm 3 m/S 752 mmHg 49%
    15:00 +9°C° 0 mm 3 m/S 752 mmHg 49%
    16:00 +9°C° 0 mm 3 m/S 752 mmHg 48%
    17:00 +9°C° 0 mm 3 m/S 752 mmHg 48%
    18:00 +8°C° 0 mm 2 m/S 753 mmHg 52%
    19:00 +6°C° 0 mm 2 m/S 753 mmHg 56%
    20:00 +6°C° 0 mm 1 m/S 754 mmHg 61%
    21:00 +6°C° 0 mm 1 m/S 754 mmHg 63%
    22:00 +5°C° 0 mm 1 m/S 755 mmHg 65%
    23:00 +4°C° 0 mm 1 m/S 755 mmHg 66%

    übermorgen, 5 April, Sonntag

    Zeit Temperatur Niederschläge Wind Luftdruck Luftfeuchtigkeit
    00:00 +4°C° 0 mm 1 m/S 756 mmHg 67%
    01:00 +3°C° 0 mm 0 m/S 756 mmHg 68%
    02:00 +3°C° 0 mm 0 m/S 757 mmHg 69%
    03:00 +3°C° 0 mm 1 m/S 757 mmHg 70%
    04:00 +3°C° 0 mm 1 m/S 757 mmHg 71%
    05:00 +3°C° 0 mm 1 m/S 757 mmHg 72%
    06:00 +4°C° 0 mm 1 m/S 758 mmHg 69%
    07:00 +5°C° 0 mm 1 m/S 758 mmHg 66%
    08:00 +6°C° 0 mm 1 m/S 759 mmHg 62%
    09:00 +6°C° 0 mm 2 m/S 759 mmHg 56%
    10:00 +8°C° 0 mm 2 m/S 759 mmHg 50%
    11:00 +9°C° 0 mm 2 m/S 759 mmHg 44%
    12:00 +10°C° 0 mm 3 m/S 759 mmHg 41%
    13:00 +11°C° 0 mm 3 m/S 759 mmHg 39%
    14:00 +11°C° 0 mm 3 m/S 759 mmHg 37%
    15:00 +11°C° 0 mm 3 m/S 759 mmHg 38%
    16:00 +11°C° 0 mm 3 m/S 759 mmHg 39%
    17:00 +11°C° 0 mm 3 m/S 758 mmHg 40%
    18:00 +10°C° 0 mm 3 m/S 758 mmHg 45%
    19:00 +8°C° 0 mm 3 m/S 759 mmHg 51%
    20:00 +7°C° 0 mm 3 m/S 759 mmHg 56%
    21:00 +5°C° 0 mm 3 m/S 759 mmHg 57%
    22:00 +5°C° 0 mm 3 m/S 759 mmHg 59%
    23:00 +4°C° 0 mm 3 m/S 759 mmHg 60%

    6 April, Montag

    Zeit Temperatur Niederschläge Wind Luftdruck Luftfeuchtigkeit
    00:00 +4°C° 0 mm 3 m/S 759 mmHg 60%
    01:00 +3°C° 0 mm 4 m/S 759 mmHg 61%
    02:00 +3°C° 0 mm 4 m/S 759 mmHg 61%
    03:00 +3°C° 0 mm 4 m/S 759 mmHg 61%
    04:00 +1°C° 0 mm 4 m/S 759 mmHg 61%
    05:00 +1°C° 0 mm 4 m/S 759 mmHg 60%
    06:00 +2°C° 0 mm 5 m/S 759 mmHg 59%
    07:00 +3°C° 0 mm 5 m/S 759 mmHg 57%
    08:00 +4°C° 0 mm 6 m/S 759 mmHg 56%
    09:00 +7°C° 0 mm 6 m/S 759 mmHg 52%
    10:00 +9°C° 0 mm 6 m/S 759 mmHg 47%
    11:00 +11°C° 0 mm 6 m/S 759 mmHg 42%
    12:00 +11°C° 0 mm 6 m/S 759 mmHg 41%
    13:00 +13°C° 0 mm 6 m/S 759 mmHg 40%
    14:00 +14°C° 0 mm 6 m/S 759 mmHg 38%
    15:00 +14°C° 0 mm 5 m/S 758 mmHg 39%
    16:00 +14°C° 0 mm 5 m/S 758 mmHg 40%
    17:00 +14°C° 0 mm 5 m/S 758 mmHg 41%
    18:00 +12°C° 0 mm 4 m/S 758 mmHg 47%
    19:00 +10°C° 0 mm 4 m/S 758 mmHg 53%
    20:00 +9°C° 0 mm 3 m/S 758 mmHg 59%
    21:00 +8°C° 0 mm 3 m/S 758 mmHg 61%
    22:00 +7°C° 0 mm 3 m/S 758 mmHg 64%
    23:00 +7°C° 0 mm 3 m/S 758 mmHg 66%

    7 April, Dienstag

    Zeit Temperatur Niederschläge Wind Luftdruck Luftfeuchtigkeit
    00:00 +5°C° 0 mm 3 m/S 758 mmHg 66%
    01:00 +5°C° 0 mm 3 m/S 758 mmHg 65%
    02:00 +5°C° 0 mm 3 m/S 758 mmHg 65%
    03:00 +4°C° 0 mm 3 m/S 758 mmHg 65%
    04:00 +4°C° 0 mm 3 m/S 758 mmHg 64%
    05:00 +5°C° 0 mm 2 m/S 758 mmHg 64%
    06:00 +5°C° 0 mm 2 m/S 758 mmHg 63%
    07:00 +6°C° 0 mm 2 m/S 758 mmHg 61%
    08:00 +7°C° 0 mm 2 m/S 758 mmHg 59%
    09:00 +9°C° 0 mm 2 m/S 759 mmHg 54%
    10:00 +12°C° 0 mm 2 m/S 759 mmHg 48%
    11:00 +14°C° 0 mm 2 m/S 759 mmHg 43%
    12:00 +15°C° 0 mm 2 m/S 759 mmHg 40%
    13:00 +16°C° 0 mm 2 m/S 759 mmHg 37%
    14:00 +17°C° 0 mm 2 m/S 758 mmHg 35%
    15:00 +18°C° 0 mm 1 m/S 758 mmHg 35%
    16:00 +18°C° 0 mm 1 m/S 758 mmHg 35%
    17:00 +19°C° 0 mm 1 m/S 757 mmHg 36%
    18:00 +16°C° 0 mm 1 m/S 757 mmHg 40%
    19:00 +14°C° 0 mm 1 m/S 757 mmHg 45%
    20:00 +12°C° 0 mm 1 m/S 757 mmHg 49%
    21:00 +12°C° 0 mm 1 m/S 757 mmHg 51%
    22:00 +11°C° 0 mm 1 m/S 757 mmHg 52%
    23:00 +10°C° 0 mm 1 m/S 758 mmHg 54%

    8 April, Mittwoch

    Zeit Temperatur Niederschläge Wind Luftdruck Luftfeuchtigkeit
    00:00 +10°C° 0 mm 1 m/S 758 mmHg 55%
    01:00 +9°C° 0 mm 1 m/S 758 mmHg 55%
    02:00 +9°C° 0 mm 1 m/S 758 mmHg 56%
    03:00 +9°C° 0 mm 1 m/S 758 mmHg 57%
    04:00 +8°C° 0 mm 1 m/S 758 mmHg 58%
    05:00 +8°C° 0 mm 1 m/S 758 mmHg 60%
    06:00 +9°C° 0 mm 1 m/S 758 mmHg 59%
    07:00 +9°C° 0 mm 1 m/S 758 mmHg 57%
    08:00 +10°C° 0 mm 1 m/S 758 mmHg 56%
    09:00 +12°C° 0 mm 1 m/S 758 mmHg 53%
    10:00 +14°C° 0 mm 1 m/S 758 mmHg 49%
    11:00 +16°C° 0 mm 2 m/S 758 mmHg 46%
    12:00 +17°C° 0 mm 2 m/S 757 mmHg 46%
    13:00 +17°C° 0 mm 2 m/S 757 mmHg 47%
    14:00 +18°C° 0 mm 2 m/S 757 mmHg 47%
    15:00 +18°C° 0 mm 2 m/S 756 mmHg 50%
    16:00 +18°C° 0 mm 3 m/S 756 mmHg 53%
    17:00 +18°C° 0 mm 3 m/S 756 mmHg 55%
    18:00 +16°C° 0 mm 3 m/S 756 mmHg 59%
    19:00 +15°C° 0 mm 2 m/S 756 mmHg 64%
    20:00 +13°C° 0 mm 2 m/S 756 mmHg 68%
    21:00 +12°C° 0 mm 2 m/S 756 mmHg 66%
    22:00 +11°C° 0 mm 1 m/S 756 mmHg 64%
    23:00 +11°C° 0 mm 1 m/S 756 mmHg 62%
    Mehr zeigen